,,PA_Meas_PMT16A,,PR_Meas_QMR101_102,,RH_Meas_QMH101,,SR_Meas_QMS101,,TA_Meas_QMH101,,GenWind,,GenWind,
time,status,PA,status,PR,status,RH,status,SR,status,TA,status,DirAvg,status,SpdAvg,
2010-08-25, 00:00:04,VALID,917.995,VALID,0,VALID,95.0183,VALID,0,VALID,20.5789,VALID,19,VALID,0.932813,
2010-08-25, 00:01:04,VALID,918.007,VALID,0,VALID,95.1631,VALID,0,VALID,20.5594,VALID,19,VALID,0.601953,
2010-08-25, 00:02:04,VALID,918.035,VALID,0,VALID,95.247,VALID,0,VALID,20.5399,VALID,19,VALID,0.439453,
2010-08-25, 00:03:04,VALID,918.053,VALID,0,VALID,95.3232,VALID,0,VALID,20.5399,VALID,19,VALID,0.858984,
2010-08-25, 00:04:04,VALID,918.044,VALID,0,VALID,95.4071,VALID,0,VALID,20.5399,VALID,19,VALID,1.11563,
2010-08-25, 00:05:04,VALID,918.083,VALID,0,VALID,95.4909,VALID,0,VALID,20.5399,VALID,188,VALID,0.883203,
2010-08-25, 00:06:04,VALID,918.089,VALID,0,VALID,95.59,VALID,0,VALID,20.5594,VALID,188,VALID,1.03945,
2010-08-25, 00:07:04,VALID,918.084,VALID,0,VALID,95.6739,VALID,0,VALID,20.5789,VALID,188,VALID,0.521484,
2010-08-25, 00:08:04,VALID,918.061,VALID,0,VALID,95.7272,VALID,0,VALID,20.639,VALID,185,VALID,0.757422,
2010-08-25, 00:09:04,VALID,918.036,VALID,0,VALID,95.7654,VALID,0,VALID,20.678,VALID,184,VALID,1.06406,
2010-08-25, 00:10:04,VALID,918.031,VALID,0,VALID,95.7577,VALID,0,VALID,20.6959,VALID,184,VALID,0.396094,
2010-08-25, 00:11:04,VALID,918.008,VALID,0,VALID,95.7196,VALID,0.107441,VALID,20.6943,VALID,184,VALID,0.641016,
2010-08-25, 00:12:04,VALID,917.985,VALID,0,VALID,95.651,VALID,0.107441,VALID,20.7544,VALID,180,VALID,1.35586,
2010-08-25, 00:13:04,VALID,918.011,VALID,0,VALID,95.5443,VALID,0.107441,VALID,20.7333,VALID,180,VALID,1.00039,
2010-08-25, 00:14:04,VALID,918.034,VALID,0,VALID,95.4604,VALID,0.107441,VALID,20.7723,VALID,180,VALID,0.757813,
2010-08-25, 00:15:04,VALID,918.046,VALID,0,VALID,95.3461,VALID,0,VALID,20.7723,VALID,180,VALID,0.601563,
2010-08-25, 00:16:04,VALID,918.069,VALID,0,VALID,95.2393,VALID,0.107441,VALID,20.7723,VALID,180,VALID,0.597266,
2010-08-25, 00:17:04,VALID,918.102,VALID,0,VALID,94.9878,VALID,0.107441,VALID,20.7528,VALID,180,VALID,0.778125,
2010-08-25, 00:18:04,VALID,918.107,VALID,0,VALID,94.9039,VALID,0,VALID,20.7918,VALID,184,VALID,0.905078,
2010-08-25, 00:19:04,VALID,918.066,VALID,0,VALID,94.8124,VALID,0,VALID,20.7723,VALID,161,VALID,0.549609,
2010-08-25, 00:20:04,VALID,918.041,VALID,0,VALID,94.7819,VALID,0.107441,VALID,20.8129,VALID,155,VALID,1.25352,
2010-08-25, 00:21:04,VALID,918.027,VALID,0,VALID,94.66,VALID,0,VALID,20.7918,VALID,121,VALID,1.33477,
2010-08-25, 00:22:04,VALID,917.994,VALID,0,VALID,94.5609,VALID,0.107441,VALID,20.7934,VALID,166,VALID,0.976172,
2010-08-25, 00:23:04,VALID,917.908,VALID,0,VALID,94.4999,VALID,0.107441,VALID,20.7918,VALID,158,VALID,0.952344,
2010-08-25, 00:24:04,VALID,917.921,VALID,0,VALID,94.4922,VALID,0,VALID,20.7723,VALID,149,VALID,1.33711,
2010-08-25, 00:25:04,VALID,917.914,VALID,0,VALID,94.4313,VALID,0,VALID,20.7934,VALID,147,VALID,1.175,
2010-08-25, 00:26:04,VALID,917.927,VALID,0,VALID,94.2635,VALID,0,VALID,20.7934,VALID,115,VALID,1.06523,
2010-08-25, 00:27:04,VALID,917.934,VALID,0,VALID,94.073,VALID,0,VALID,20.7918,VALID,148,VALID,1.40156,
2010-08-25, 00:28:04,VALID,917.959,VALID,0,VALID,94.0196,VALID,0.107441,VALID,20.7918,VALID,140,VALID,1.38164,
2010-08-25, 00:29:04,VALID,917.966,VALID,0,VALID,94.0425,VALID,0.107441,VALID,20.7918,VALID,167,VALID,0.967578,
2010-08-25, 00:30:04,VALID,917.926,VALID,0,VALID,94.0043,VALID,0,VALID,20.7934,VALID,157,VALID,0.810547,
2010-08-25, 00:31:04,VALID,917.924,VALID,0,VALID,94.0653,VALID,0.107441,VALID,20.7723,VALID,135,VALID,1.17305,
2010-08-25, 00:32:04,VALID,917.873,VALID,0,VALID,94.1187,VALID,0.107441,VALID,20.7739,VALID,121,VALID,1.08672,
2010-08-25, 00:33:04,VALID,917.839,VALID,0,VALID,94.2178,VALID,0.107441,VALID,20.7528,VALID,138,VALID,1.19609,
2010-08-25, 00:34:04,VALID,917.856,VALID,0,VALID,94.3779,VALID,0.107441,VALID,20.7138,VALID,141,VALID,0.939453,
2010-08-25, 00:35:04,VALID,917.825,VALID,0,VALID,94.5456,VALID,0.107441,VALID,20.6748,VALID,141,VALID,1.09766,
2010-08-25, 00:36:04,VALID,917.84,VALID,0,VALID,94.6523,VALID,0.107441,VALID,20.6358,VALID,141,VALID,1.0875,
2010-08-25, 00:37:04,VALID,917.858,VALID,0,VALID,94.8124,VALID,0,VALID,20.5968,VALID,141,VALID,1.1918,
2010-08-25, 00:38:04,VALID,917.874,VALID,0,VALID,94.9725,VALID,0.107441,VALID,20.5578,VALID,141,VALID,1.23125,
2010-08-25, 00:39:04,VALID,917.875,VALID,0,VALID,95.1326,VALID,0.107441,VALID,20.5188,VALID,141,VALID,1.19102,
2010-08-25, 00:40:04,VALID,917.873,VALID,0,VALID,95.2622,VALID,0.107441,VALID,20.5399,VALID,141,VALID,1.04648,
2010-08-25, 00:41:04,VALID,917.849,VALID,0,VALID,95.3156,VALID,0.107441,VALID,20.4798,VALID,141,VALID,1.04727,
2010-08-25, 00:42:04,VALID,917.807,VALID,0,VALID,95.3766,VALID,0,VALID,20.4798,VALID,141,VALID,0.84375,
2010-08-25, 00:43:04,VALID,917.782,VALID,0,VALID,95.4071,VALID,0.107441,VALID,20.5009,VALID,141,VALID,0.6375,
2010-08-25, 00:44:04,VALID,917.78,VALID,0,VALID,95.3994,VALID,0.107441,VALID,20.5009,VALID,141,VALID,0.572266,
2010-08-25, 00:45:04,VALID,917.789,VALID,0,VALID,95.3689,VALID,0,VALID,20.4813,VALID,141,VALID,0.713281,
2010-08-25, 00:46:04,VALID,917.772,VALID,0,VALID,95.3232,VALID,0.107441,VALID,20.4603,VALID,141,VALID,0.609375,
2010-08-25, 00:47:04,VALID,917.793,VALID,0,VALID,95.3308,VALID,0.107441,VALID,20.4813,VALID,141,VALID,0.685938,
2010-08-25, 00:48:04,VALID,917.774,VALID,0,VALID,95.3003,VALID,0.107441,VALID,20.5009,VALID,160,VALID,1.08203,
2010-08-25, 00:49:04,VALID,917.784,VALID,0,VALID,95.247,VALID,0.107441,VALID,20.5009,VALID,160,VALID,0.969141,
2010-08-25, 00:50:04,VALID,917.818,VALID,0,VALID,95.1174,VALID,0.107441,VALID,20.4993,VALID,138,VALID,1.00469,
2010-08-25, 00:51:04,VALID,917.798,VALID,0,VALID,95.0411,VALID,0,VALID,20.5188,VALID,173,VALID,1.11133,
2010-08-25, 00:52:04,VALID,917.799,VALID,0,VALID,94.9496,VALID,0,VALID,20.5399,VALID,148,VALID,0.947266,
2010-08-25, 00:53:04,VALID,917.794,VALID,0,VALID,94.8277,VALID,0.107441,VALID,20.5188,VALID,148,VALID,0.980469,
2010-08-25, 00:54:04,VALID,917.798,VALID,0,VALID,94.7362,VALID,0.107441,VALID,20.5188,VALID,165,VALID,0.895703,
2010-08-25, 00:55:04,VALID,917.799,VALID,0,VALID,94.6218,VALID,0.107441,VALID,20.5188,VALID,165,VALID,0.840234,
2010-08-25, 00:56:04,VALID,917.806,VALID,0,VALID,94.5151,VALID,0,VALID,20.5609,VALID,161,VALID,0.950781,
2010-08-25, 00:57:04,VALID,917.834,VALID,0,VALID,94.3855,VALID,0,VALID,20.5609,VALID,161,VALID,0.271094,
2010-08-25, 00:58:04,VALID,917.867,VALID,0,VALID,94.2026,VALID,0,VALID,20.5609,VALID,150,VALID,0.7375,
2010-08-25, 00:59:04,VALID,917.841,VALID,0,VALID,94.0501,VALID,0,VALID,20.5414,VALID,150,VALID,0.749219,
2010-08-25, 01:00:04,VALID,917.852,VALID,0,VALID,93.8976,VALID,0,VALID,20.5609,VALID,150,VALID,0.838672,
2010-08-25, 01:01:04,VALID,917.821,VALID,0,VALID,93.5927,VALID,0,VALID,20.5414,VALID,150,VALID,0.848828,
2010-08-25, 01:02:04,VALID,917.807,VALID,0,VALID,93.1505,VALID,0,VALID,20.5594,VALID,146,VALID,0.967188,
2010-08-25, 01:03:04,VALID,917.765,VALID,0,VALID,92.8075,VALID,0,VALID,20.6194,VALID,146,VALID,0.698047,
2010-08-25, 01:04:04,VALID,917.748,VALID,0,VALID,92.6397,VALID,0,VALID,20.5984,VALID,146,VALID,0.633984,
2010-08-25, 01:05:04,VALID,917.716,VALID,0,VALID,92.5483,VALID,0,VALID,20.6194,VALID,146,VALID,0.414844,
2010-08-25, 01:06:04,VALID,917.689,VALID,0,VALID,92.533,VALID,0,VALID,20.5594,VALID,146,VALID,0.367969,
2010-08-25, 01:07:04,VALID,917.675,VALID,0,VALID,92.5406,VALID,0,VALID,20.5804,VALID,146,VALID,0.771094,
2010-08-25, 01:08:04,VALID,917.727,VALID,0,VALID,92.4949,VALID,0,VALID,20.5414,VALID,146,VALID,0.509766,
2010-08-25, 01:09:04,VALID,917.721,VALID,0,VALID,92.5711,VALID,0,VALID,20.5204,VALID,146,VALID,0.707422,
2010-08-25, 01:10:04,VALID,917.72,VALID,0,VALID,92.7922,VALID,0,VALID,20.5024,VALID,146,VALID,1.01758,
2010-08-25, 01:11:04,VALID,917.738,VALID,0,VALID,92.9904,VALID,0,VALID,20.5204,VALID,146,VALID,1.08555,
2010-08-25, 01:12:04,VALID,917.682,VALID,0,VALID,93.0895,VALID,0,VALID,20.5399,VALID,146,VALID,0.867969,
2010-08-25, 01:13:04,VALID,917.663,VALID,0,VALID,93.2877,VALID,0,VALID,20.5594,VALID,162,VALID,1.61328,
2010-08-25, 01:14:04,VALID,917.625,VALID,0,VALID,93.2344,VALID,0,VALID,20.5984,VALID,179,VALID,0.775781,
2010-08-25, 01:15:04,VALID,917.623,VALID,0,VALID,93.1353,VALID,0,VALID,20.5968,VALID,179,VALID,0.783203,
2010-08-25, 01:16:04,VALID,917.552,VALID,0,VALID,93.2496,VALID,0,VALID,20.6374,VALID,162,VALID,1.45625,
2010-08-25, 01:17:04,VALID,917.56,VALID,0,VALID,93.1963,VALID,0,VALID,20.6374,VALID,161,VALID,0.834375,
2010-08-25, 01:18:04,VALID,917.555,VALID,0,VALID,93.242,VALID,0,VALID,20.6374,VALID,161,VALID,0.477734,
2010-08-25, 01:19:04,VALID,917.552,VALID,0,VALID,93.1124,VALID,0,VALID,20.6179,VALID,161,VALID,0.690625,
2010-08-25, 01:20:04,VALID,917.555,VALID,0,VALID,92.9371,VALID,0,VALID,20.5789,VALID,161,VALID,0.848437,
2010-08-25, 01:21:04,VALID,917.577,VALID,0,VALID,92.9294,VALID,0.107441,VALID,20.5594,VALID,141,VALID,1.1582,
2010-08-25, 01:22:04,VALID,917.595,VALID,0,VALID,92.9142,VALID,0,VALID,20.5204,VALID,131,VALID,0.8,
2010-08-25, 01:23:04,VALID,917.626,VALID,0,VALID,92.7846,VALID,0,VALID,20.5204,VALID,131,VALID,0.853906,
2010-08-25, 01:24:04,VALID,917.635,VALID,0,VALID,92.9066,VALID,0,VALID,20.4798,VALID,127,VALID,1.06797,
2010-08-25, 01:25:04,VALID,917.635,VALID,0,VALID,92.9904,VALID,0,VALID,20.5009,VALID,118,VALID,1.3457,
2010-08-25, 01:26:04,VALID,917.631,VALID,0,VALID,92.8913,VALID,0,VALID,20.5204,VALID,138,VALID,0.555469,
2010-08-25, 01:27:04,VALID,917.591,VALID,0,VALID,92.7922,VALID,0,VALID,20.5383,VALID,138,VALID,0.940234,
2010-08-25, 01:28:04,VALID,917.594,VALID,0,VALID,92.655,VALID,0,VALID,20.5789,VALID,138,VALID,0.426562,
2010-08-25, 01:29:04,VALID,917.578,VALID,0,VALID,92.6702,VALID,0,VALID,20.5984,VALID,138,VALID,0.147656,
2010-08-25, 01:30:04,VALID,917.578,VALID,0,VALID,92.5483,VALID,0,VALID,20.5984,VALID,138,VALID,0.240625,
2010-08-25, 01:31:04,VALID,917.568,VALID,0,VALID,92.5559,VALID,0,VALID,20.5984,VALID,138,VALID,0.00117188,
2010-08-25, 01:32:04,VALID,917.547,VALID,0,VALID,92.5102,VALID,0,VALID,20.5984,VALID,138,VALID,0.4625,
2010-08-25, 01:33:04,VALID,917.543,VALID,0,VALID,92.2662,VALID,0,VALID,20.5984,VALID,138,VALID,0.548828,
2010-08-25, 01:34:04,VALID,917.514,VALID,0,VALID,91.946,VALID,0,VALID,20.5399,VALID,138,VALID,0.888672,
2010-08-25, 01:35:04,VALID,917.514,VALID,0,VALID,92.5711,VALID,0,VALID,20.4618,VALID,138,VALID,1.01797,
2010-08-25, 01:36:04,VALID,917.482,VALID,0,VALID,93.0895,VALID,0,VALID,20.4033,VALID,138,VALID,0.942187,
2010-08-25, 01:37:04,VALID,917.47,VALID,0,VALID,93.3259,VALID,0,VALID,20.3253,VALID,138,VALID,0.857813,
2010-08-25, 01:38:04,VALID,917.455,VALID,0,VALID,93.6308,VALID,0,VALID,20.3058,VALID,138,VALID,0.794141,
2010-08-25, 01:39:04,VALID,917.443,VALID,0,VALID,93.829,VALID,0,VALID,20.2863,VALID,98,VALID,0.951172,
2010-08-25, 01:40:04,VALID,917.393,VALID,0,VALID,93.9586,VALID,0,VALID,20.3253,VALID,98,VALID,1.11328,
2010-08-25, 01:41:04,VALID,917.362,VALID,0,VALID,93.7756,VALID,0,VALID,20.3448,VALID,98,VALID,1.16719,
2010-08-25, 01:42:04,VALID,917.329,VALID,0,VALID,93.6613,VALID,0.107441,VALID,20.3643,VALID,98,VALID,0.767969,
2010-08-25, 01:43:04,VALID,917.283,VALID,0,VALID,93.5012,VALID,0,VALID,20.3448,VALID,98,VALID,0.817969,
2010-08-25, 01:44:04,VALID,917.22,VALID,0,VALID,93.5393,VALID,0,VALID,20.3643,VALID,98,VALID,0.625391,
2010-08-25, 01:45:04,VALID,917.222,VALID,0,VALID,93.5088,VALID,0,VALID,20.3253,VALID,98,VALID,0.650781,
2010-08-25, 01:46:04,VALID,917.177,VALID,0,VALID,93.5851,VALID,0,VALID,20.3058,VALID,98,VALID,0.660547,
2010-08-25, 01:47:04,VALID,917.152,VALID,0,VALID,93.7604,VALID,0,VALID,20.3253,VALID,98,VALID,0.726563,
2010-08-25, 01:48:04,VALID,917.164,VALID,0,VALID,93.89,VALID,0,VALID,20.3043,VALID,98,VALID,0.927734,
2010-08-25, 01:49:04,VALID,917.11,VALID,0,VALID,93.6537,VALID,0,VALID,20.2863,VALID,99,VALID,0.719922,
2010-08-25, 01:50:04,VALID,917.159,VALID,0,VALID,93.7299,VALID,0,VALID,20.2668,VALID,98,VALID,0.700781,
2010-08-25, 01:51:04,VALID,917.147,VALID,0,VALID,94.0425,VALID,0,VALID,20.2263,VALID,98,VALID,1.06211,
2010-08-25, 01:52:04,VALID,917.161,VALID,0,VALID,94.294,VALID,0,VALID,20.2458,VALID,99,VALID,1.33242,
2010-08-25, 01:53:04,VALID,917.204,VALID,0,VALID,94.233,VALID,0.107441,VALID,20.2458,VALID,130,VALID,1.42656,
2010-08-25, 01:54:04,VALID,917.19,VALID,0,VALID,94.1263,VALID,0,VALID,20.2653,VALID,130,VALID,1.13086,
2010-08-25, 01:55:04,VALID,917.187,VALID,0,VALID,93.9586,VALID,0,VALID,20.2863,VALID,130,VALID,0.890625,
2010-08-25, 01:56:04,VALID,917.194,VALID,0,VALID,94.0425,VALID,0.107441,VALID,20.3058,VALID,130,VALID,1.23008,
2010-08-25, 01:57:04,VALID,917.168,VALID,0,VALID,93.8976,VALID,0.107441,VALID,20.2848,VALID,130,VALID,0.978516,
2010-08-25, 01:58:04,VALID,917.172,VALID,0,VALID,93.9129,VALID,0.107441,VALID,20.2458,VALID,130,VALID,1.38125,
2010-08-25, 01:59:04,VALID,917.182,VALID,0,VALID,93.8214,VALID,0.107441,VALID,20.2278,VALID,130,VALID,1.04375,
2010-08-25, 02:00:04,VALID,917.169,VALID,0,VALID,93.9891,VALID,0,VALID,20.2083,VALID,130,VALID,1.0332,
2010-08-25, 02:01:04,VALID,917.17,VALID,0,VALID,94.1339,VALID,0.107441,VALID,20.1873,VALID,130,VALID,0.976563,
2010-08-25, 02:02:04,VALID,917.191,VALID,0,VALID,94.2483,VALID,0.107441,VALID,20.2083,VALID,130,VALID,0.808203,
2010-08-25, 02:03:04,VALID,917.143,VALID,0,VALID,94.2635,VALID,0,VALID,20.2083,VALID,130,VALID,0.685938,
2010-08-25, 02:04:04,VALID,917.169,VALID,0,VALID,94.3093,VALID,0.107441,VALID,20.2278,VALID,130,VALID,0.575391,
2010-08-25, 02:05:04,VALID,917.132,VALID,0,VALID,94.2026,VALID,0.107441,VALID,20.2068,VALID,130,VALID,0.966797,
2010-08-25, 02:06:04,VALID,917.124,VALID,0,VALID,94.1721,VALID,0,VALID,20.2068,VALID,130,VALID,1.27031,
2010-08-25, 02:07:04,VALID,917.135,VALID,0,VALID,94.1339,VALID,0,VALID,20.2473,VALID,130,VALID,1.41641,
2010-08-25, 02:08:04,VALID,917.121,VALID,0,VALID,94.1111,VALID,0,VALID,20.2473,VALID,130,VALID,1.4582,
2010-08-25, 02:09:04,VALID,917.121,VALID,0,VALID,94.1339,VALID,0.107441,VALID,20.2263,VALID,130,VALID,1.31094,
2010-08-25, 02:10:04,VALID,917.149,VALID,0,VALID,94.1416,VALID,0.107441,VALID,20.2473,VALID,123,VALID,1.33086,
2010-08-25, 02:11:04,VALID,917.187,VALID,0,VALID,94.1721,VALID,0.107441,VALID,20.2473,VALID,123,VALID,1.30781,
2010-08-25, 02:12:04,VALID,917.165,VALID,0,VALID,94.2254,VALID,0.107441,VALID,20.2473,VALID,140,VALID,1.39375,
2010-08-25, 02:13:04,VALID,917.169,VALID,0,VALID,94.2864,VALID,0.107441,VALID,20.2263,VALID,154,VALID,1.12812,
2010-08-25, 02:14:04,VALID,917.18,VALID,0,VALID,94.2026,VALID,0,VALID,20.2668,VALID,148,VALID,0.78125,
2010-08-25, 02:15:04,VALID,917.125,VALID,0,VALID,94.2026,VALID,0,VALID,20.2668,VALID,145,VALID,0.983984,
2010-08-25, 02:16:04,VALID,917.072,VALID,0,VALID,94.0958,VALID,0.107441,VALID,20.2458,VALID,133,VALID,0.925781,
2010-08-25, 02:17:04,VALID,917.029,VALID,0,VALID,94.1263,VALID,0,VALID,20.2458,VALID,143,VALID,1.76992,
2010-08-25, 02:18:04,VALID,916.979,VALID,0,VALID,94.1644,VALID,0.107441,VALID,20.2653,VALID,138,VALID,1.32617,
2010-08-25, 02:19:04,VALID,916.965,VALID,0,VALID,94.1568,VALID,0.107441,VALID,20.2653,VALID,115,VALID,0.742188,
2010-08-25, 02:20:04,VALID,916.921,VALID,0,VALID,94.2559,VALID,0,VALID,20.2863,VALID,131,VALID,0.951953,
2010-08-25, 02:21:04,VALID,916.942,VALID,0,VALID,94.1644,VALID,0.107441,VALID,20.2653,VALID,131,VALID,0.666016,
2010-08-25, 02:22:04,VALID,916.91,VALID,0,VALID,94.1568,VALID,0.107441,VALID,20.2863,VALID,142,VALID,0.495703,
2010-08-25, 02:23:04,VALID,916.969,VALID,0,VALID,94.0806,VALID,0.107441,VALID,20.3043,VALID,142,VALID,0.707031,
2010-08-25, 02:24:04,VALID,916.969,VALID,0,VALID,93.9434,VALID,0,VALID,20.3253,VALID,142,VALID,0.460547,
2010-08-25, 02:25:04,VALID,917.011,VALID,0,VALID,93.8519,VALID,0.107441,VALID,20.3238,VALID,143,VALID,0.584766,
2010-08-25, 02:26:04,VALID,917.001,VALID,0,VALID,93.6689,VALID,0.107441,VALID,20.3838,VALID,112,VALID,1.06797,
2010-08-25, 02:27:04,VALID,917.006,VALID,0,VALID,93.4859,VALID,0,VALID,20.3628,VALID,112,VALID,0.356641,
2010-08-25, 02:28:04,VALID,917.003,VALID,0,VALID,93.4097,VALID,0.107441,VALID,20.4213,VALID,146,VALID,0.677734,
2010-08-25, 02:29:04,VALID,916.969,VALID,0,VALID,93.1658,VALID,0,VALID,20.4618,VALID,137,VALID,0.949609,
2010-08-25, 02:30:04,VALID,916.991,VALID,0,VALID,92.9904,VALID,0,VALID,20.5009,VALID,166,VALID,1.30859,
2010-08-25, 02:31:04,VALID,916.975,VALID,0,VALID,92.8227,VALID,0,VALID,20.5399,VALID,166,VALID,1.09258,
2010-08-25, 02:32:04,VALID,916.949,VALID,0,VALID,92.7007,VALID,0.107441,VALID,20.5399,VALID,166,VALID,1.1543,
2010-08-25, 02:33:04,VALID,916.971,VALID,0,VALID,92.7007,VALID,0.107441,VALID,20.5188,VALID,166,VALID,0.632813,
2010-08-25, 02:34:04,VALID,916.928,VALID,0,VALID,92.6474,VALID,0.107441,VALID,20.4993,VALID,166,VALID,0.858594,
2010-08-25, 02:35:04,VALID,916.963,VALID,0,VALID,92.6779,VALID,0.107441,VALID,20.5188,VALID,155,VALID,0.760156,
2010-08-25, 02:36:04,VALID,916.939,VALID,0,VALID,92.6169,VALID,0.107441,VALID,20.4993,VALID,155,VALID,1.15547,
2010-08-25, 02:37:04,VALID,916.95,VALID,0,VALID,92.594,VALID,0.107441,VALID,20.5188,VALID,155,VALID,0.626172,
2010-08-25, 02:38:04,VALID,916.941,VALID,0,VALID,92.533,VALID,0,VALID,20.5188,VALID,155,VALID,0.527734,
2010-08-25, 02:39:04,VALID,916.904,VALID,0,VALID,92.472,VALID,0.107441,VALID,20.5399,VALID,155,VALID,0.796484,
2010-08-25, 02:40:04,VALID,916.875,VALID,0,VALID,92.3577,VALID,0.107441,VALID,20.4993,VALID,155,VALID,1.08477,
2010-08-25, 02:41:04,VALID,916.878,VALID,0,VALID,92.3501,VALID,0.107441,VALID,20.5009,VALID,161,VALID,0.717578,
2010-08-25, 02:42:04,VALID,916.876,VALID,0,VALID,92.3729,VALID,0.107441,VALID,20.5009,VALID,166,VALID,0.723437,
2010-08-25, 02:43:04,VALID,916.882,VALID,0,VALID,92.4644,VALID,0,VALID,20.4618,VALID,166,VALID,0.66875,
2010-08-25, 02:44:04,VALID,916.904,VALID,0,VALID,92.4873,VALID,0,VALID,20.4228,VALID,166,VALID,0.887891,
2010-08-25, 02:45:04,VALID,916.89,VALID,0,VALID,92.472,VALID,0.107441,VALID,20.4228,VALID,166,VALID,0.414453,
2010-08-25, 02:46:04,VALID,916.912,VALID,0,VALID,92.411,VALID,0.107441,VALID,20.4033,VALID,166,VALID,1.20977,
2010-08-25, 02:47:04,VALID,916.892,VALID,0,VALID,92.3196,VALID,0,VALID,20.3628,VALID,156,VALID,1.00547,
2010-08-25, 02:48:04,VALID,916.886,VALID,0,VALID,92.1519,VALID,0,VALID,20.3838,VALID,119,VALID,0.731641,
2010-08-25, 02:49:04,VALID,916.879,VALID,0,VALID,92.2662,VALID,0,VALID,20.3448,VALID,119,VALID,0.862891,
2010-08-25, 02:50:04,VALID,916.869,VALID,0,VALID,92.3272,VALID,0.107441,VALID,20.3253,VALID,118,VALID,0.563672,
2010-08-25, 02:51:04,VALID,916.872,VALID,0,VALID,92.3501,VALID,0,VALID,20.3058,VALID,118,VALID,0.982422,
2010-08-25, 02:52:04,VALID,916.831,VALID,0,VALID,92.2814,VALID,0.107441,VALID,20.2458,VALID,119,VALID,0.941016,
2010-08-25, 02:53:04,VALID,916.842,VALID,0,VALID,92.0451,VALID,0.107441,VALID,20.2473,VALID,110,VALID,0.992969,
2010-08-25, 02:54:04,VALID,916.828,VALID,0,VALID,92.007,VALID,0.107441,VALID,20.2278,VALID,112,VALID,0.910547,
2010-08-25, 02:55:04,VALID,916.861,VALID,0,VALID,92.1442,VALID,0.107441,VALID,20.2083,VALID,116,VALID,1.56328,
2010-08-25, 02:56:04,VALID,916.875,VALID,0,VALID,92.0909,VALID,0,VALID,20.1483,VALID,115,VALID,1.94648,
2010-08-25, 02:57:04,VALID,916.877,VALID,0,VALID,92.129,VALID,0,VALID,20.1498,VALID,115,VALID,1.27461,
2010-08-25, 02:58:04,VALID,916.916,VALID,0,VALID,92.1671,VALID,0,VALID,20.1303,VALID,122,VALID,1.20234,
2010-08-25, 02:59:04,VALID,916.928,VALID,0,VALID,92.2586,VALID,0,VALID,20.1108,VALID,112,VALID,1.13242,
2010-08-25, 03:00:04,VALID,916.908,VALID,0,VALID,92.3424,VALID,0,VALID,20.0913,VALID,112,VALID,1.22578,
2010-08-25, 03:01:04,VALID,916.897,VALID,0,VALID,92.472,VALID,0.107441,VALID,20.0718,VALID,115,VALID,1.22891,
2010-08-25, 03:02:04,VALID,916.887,VALID,0,VALID,92.4797,VALID,0.107441,VALID,20.0913,VALID,135,VALID,1.01602,
2010-08-25, 03:03:04,VALID,916.881,VALID,0,VALID,92.5711,VALID,0.107441,VALID,20.0913,VALID,134,VALID,1.34063,
2010-08-25, 03:04:04,VALID,916.858,VALID,0,VALID,92.6474,VALID,0,VALID,20.0913,VALID,135,VALID,0.967969,
2010-08-25, 03:05:04,VALID,916.874,VALID,0,VALID,92.6779,VALID,0,VALID,20.0718,VALID,142,VALID,0.941406,
2010-08-25, 03:06:04,VALID,916.854,VALID,0,VALID,92.7922,VALID,0.107441,VALID,20.0328,VALID,151,VALID,1.14453,
2010-08-25, 03:07:04,VALID,916.902,VALID,0,VALID,92.8303,VALID,0,VALID,20.0148,VALID,151,VALID,0.748438,
2010-08-25, 03:08:04,VALID,916.862,VALID,0,VALID,92.9676,VALID,0,VALID,19.9938,VALID,125,VALID,0.882422,
2010-08-25, 03:09:04,VALID,916.868,VALID,0,VALID,93.1658,VALID,0,VALID,19.9353,VALID,125,VALID,1.42422,
2010-08-25, 03:10:04,VALID,916.863,VALID,0,VALID,93.2801,VALID,0,VALID,19.9548,VALID,125,VALID,0.973828,
2010-08-25, 03:11:04,VALID,916.848,VALID,0,VALID,93.1734,VALID,0,VALID,19.9548,VALID,125,VALID,0.791797,
2010-08-25, 03:12:04,VALID,916.82,VALID,0,VALID,93.2877,VALID,0,VALID,19.8963,VALID,125,VALID,1.13945,
2010-08-25, 03:13:04,VALID,916.793,VALID,0,VALID,93.6765,VALID,0.107441,VALID,19.8573,VALID,125,VALID,1.41094,
2010-08-25, 03:14:04,VALID,916.76,VALID,0,VALID,94.0348,VALID,0,VALID,19.8768,VALID,125,VALID,1.43164,
2010-08-25, 03:15:04,VALID,916.725,VALID,0,VALID,94.0882,VALID,0,VALID,19.9158,VALID,128,VALID,1.61719,
2010-08-25, 03:16:04,VALID,916.724,VALID,0,VALID,93.951,VALID,0,VALID,19.9548,VALID,141,VALID,1.38125,
2010-08-25, 03:17:04,VALID,916.718,VALID,0,VALID,93.7909,VALID,0,VALID,20.0133,VALID,141,VALID,1.44414,
2010-08-25, 03:18:04,VALID,916.697,VALID,0,VALID,93.5774,VALID,0,VALID,20.0328,VALID,141,VALID,0.965234,
2010-08-25, 03:19:04,VALID,916.699,VALID,0,VALID,93.5088,VALID,0,VALID,20.0328,VALID,145,VALID,0.879687,
2010-08-25, 03:20:04,VALID,916.703,VALID,0,VALID,93.4707,VALID,0,VALID,20.0118,VALID,138,VALID,1.04883,
2010-08-25, 03:21:04,VALID,916.678,VALID,0,VALID,93.3259,VALID,0,VALID,20.0328,VALID,132,VALID,1.31016,
2010-08-25, 03:22:04,VALID,916.684,VALID,0,VALID,93.4555,VALID,0,VALID,20.0328,VALID,151,VALID,0.973437,
2010-08-25, 03:23:04,VALID,916.688,VALID,0,VALID,93.5012,VALID,0,VALID,20.0523,VALID,151,VALID,1.05742,
2010-08-25, 03:24:04,VALID,916.689,VALID,0,VALID,93.3487,VALID,0,VALID,20.0523,VALID,151,VALID,1.3082,
2010-08-25, 03:25:04,VALID,916.676,VALID,0,VALID,93.2801,VALID,0,VALID,20.0328,VALID,135,VALID,1.12773,
2010-08-25, 03:26:04,VALID,916.671,VALID,0,VALID,93.4478,VALID,0.107441,VALID,20.0328,VALID,134,VALID,1.48008,
2010-08-25, 03:27:04,VALID,916.659,VALID,0,VALID,93.4936,VALID,0,VALID,20.0328,VALID,132,VALID,1.20664,
2010-08-25, 03:28:04,VALID,916.672,VALID,0,VALID,93.5393,VALID,0,VALID,19.9923,VALID,128,VALID,1.32813,
2010-08-25, 03:29:04,VALID,916.688,VALID,0,VALID,93.5012,VALID,0,VALID,19.9938,VALID,128,VALID,1.01172,
2010-08-25, 03:30:04,VALID,916.677,VALID,0,VALID,93.6384,VALID,0.107441,VALID,20.0133,VALID,128,VALID,1.03711,
2010-08-25, 03:31:04,VALID,916.646,VALID,0,VALID,93.5698,VALID,0,VALID,20.0133,VALID,128,VALID,0.860937,
2010-08-25, 03:32:04,VALID,916.666,VALID,0,VALID,93.3411,VALID,0,VALID,19.9938,VALID,128,VALID,0.717969,
2010-08-25, 03:33:04,VALID,916.659,VALID,0,VALID,93.2877,VALID,0,VALID,19.9743,VALID,128,VALID,1.03906,
2010-08-25, 03:34:04,VALID,916.685,VALID,0,VALID,93.3259,VALID,0,VALID,19.9743,VALID,128,VALID,0.483594,
2010-08-25, 03:35:04,VALID,916.641,VALID,0,VALID,93.4936,VALID,0,VALID,19.9353,VALID,128,VALID,0.400781,
2010-08-25, 03:36:04,VALID,916.683,VALID,0,VALID,93.6384,VALID,0.107441,VALID,19.9158,VALID,128,VALID,0.284375,
2010-08-25, 03:37:04,VALID,916.689,VALID,0,VALID,93.7147,VALID,0,VALID,19.9368,VALID,128,VALID,0.315234,
2010-08-25, 03:38:04,VALID,916.71,VALID,0,VALID,93.8061,VALID,0.107441,VALID,19.9353,VALID,128,VALID,0.269531,
2010-08-25, 03:39:04,VALID,916.731,VALID,0,VALID,93.5241,VALID,0,VALID,19.9158,VALID,128,VALID,0.36875,